SCP
0 0 0 0 0 0 0 0 0 0 0 0 0 0 0 0 0 0 0 0 0 0 0 0 0 0 0 0 0 0 0 0 0 0 0 0 0 0 0 0 0 0 -0 0 0 0 0 0 0 0 0 0 0 0
0 0 0 0 0 0 0 0 0 0 0 0 0 0 0 0 0 0 0 0 0 0 0 0 0 -0 0 -0 0 0 0 0 0 0 0 0 0 0 0 0 0 -0 0 0 0 0 0 0 0 0 0 0 0 0
0 0 0 0 0 0 0 0 0 0 0 0 0 0 0 0 0 0 0 0 0 0 0 0 0 0 0 0 0 0 0 0 0 0 0 0 0 0 -0 -0 0 0 0 0 0 0 -0 0 0 0 0 0 0 0
0 0 0 0 0 0 0 0 0 -0 0 0 0 0 0 0 0 0 0 0 0 0 0 0 0 0 0 0 0 0 0 0 0 0 0 0 0 0 0 0 -0 -0 -0 -0 -0 0 0 0 0 0 0 0 0 0
0 0 0 0 0 0 0 0 -0 -0 0 0 0 0 0 0 0 0 0 0 0 0 0 0 0 0 -0 0 0 0 0 0 0 -0 0 0 0 0 0 0 -0 -0 0 -0 0 0 0 0 0 0 0 0 0 0
0 0 0 0 0 0 0 0 0 0 0 0 0 0 0 0 0 0 0 0 0 0 0 0 0 0 0 0 0 -0 0 0 0 0 0 0 0 -0 -0 -0 -0 -0 -0 -0 -0 0 0 0 0 0 0 0 0 0
0 0 0 0 0 0 0 -0 -0 0 0 -0 0 0 0 0 0 0 0 0 0 0 0 0 0 0 -0 0 0 0 0 0 0 0 0 0 -0 0 -0 -0 0 0 -0 -0 0 0 0 0 0 -0 0 0 0 0
0 0 0 0 0 0 0 0 0 0 0 0 0 0 0 0 0 0 0 -0 0 0 0 0 0 -0 0 0 0 0 -0 0 0 0 0 0 0 0 -0 0 0 -0 -0 -0 -0 -0 0 -0 -0 0 0 0 0 0
0 0 0 0 0 0 0 0 0 0 0 0 0 0 0 0 0 0 0 0 0 0 0 0 0 -0 0 0 0 0 0 -0 0 0 0 0 0 -0 -0 0 -0 -0 0 0 -0 -0 -0 -0 0 0 0 0 0 0
0 0 0 0 0 0 0 0 0 0 0 0 0 0 0 0 0 0 0 0 0 0 0 0 0 0 0 0 0 0 0 0 0 0 0 0 0 0 0 0 -0 -0 0 0 0 0 0 0 0 0 0 0 0 -0
0 0 0 0 0 0 0 0 0 0 0 0 0 0 0 0 0 0 0 0 0 0 0 0 0 0 0 0 0 0 0 0 0 0 -0 0 0 0 0 0 0 -0 -0 -0 0 -0 -0 0 0 0 -0 -0 0 0
0 0 0 0 0 0 0 0 0 0 0 0 0 0 0 0 0 0 0 0 0 0 0 0 0 0 0 0 0 0 0 0 -0 0 0 0 -0 0 0 0 -0 0 0 -0 -0 0 -0 -0 -0 0 0 0 0 0
0 0 0 0 0 0 0 0 0 0 0 0 0 0 0 0 0 0 0 0 0 0 0 0 0 0 0 0 0 0 0 0 0 0 -0 0 0 0 0 0 0 -0 -0 -0 -0 -0 -0 -0 -0 -0 0 0 0 0
0 0 0 0 0 0 0 0 0 0 0 0 0 0 0 0 0 0 0 0 -0 0 -0 0 0 0 0 0 0 0 0 0 -0 -0 0 -0 0 0 0 0 0 -0 -0 0 -0 -0 -0 -0 -0 0 -0 -0 0 0
0 0 0 0 0 0 0 0 0 0 0 0 0 0 0 0 0 0 0 0 0 0 0 0 0 0 0 0 0 0 0 0 0 0 0 0 0 0 0 0 0 0 -0 0 0 -0 -0 -0 -0 -0 -0 -0 -0 0
0 0 0 0 0 0 0 0 0 0 0 0 0 0 0 0 0 0 0 0 0 0 0 0 0 0 0 0 0 0 0 0 -0 0 0 0 0 -0 -0 -0 0 0 0 0 -0 -0 -0 -0 -0 0 0 -0 -0 -0
0 0 0 0 0 0 0 0 0 0 0 0 0 0 0 0 0 0 0 0 0 0 0 0 0 0 0 0 0 0 0 0 0 0 0 0 0 -0 -0 -0 0 0 0 0 0 -0 0 0 0 0 0 0 0 -0
0 0 0 0 0 0 0 0 0 0 0 0 0 0 0 0 0 0 0 0 0 0 0 0 0 0 0 0 0 0 0 0 0 0 -0 -0 -0 0 0 0 0 0 0 0 0 0 0 0 0 0 0 0 0 0
0 0 0 0 0 0 0 0 0 0 0 0 0 0 0 0 0 0 0 0 0 0 0 0 0 0 0 0 0 0 0 0 0 0 0 0 0 0 0 -0 0 0 0 0 0 0 0 0 0 0 -0 0 0 0
0 0 0 0 0 0 0 0 0 0 0 0 0 0 0 0 0 0 0 0 0 0 0 0 0 0 0 0 0 0 0 0 0 0 0 0 0 0 0 0 0 0 0 0 0 0 0 0 0 -0 -0 -0 0 0
0 0 0 0 0 0 0 0 0 0 0 0 0 0 0 0 0 0 -0 0 0 0 0 0 0 0 0 0 0 0 0 0 0 0 0 0 0 0 0 0 -0 0 0 0 -0 0 0 0 0 0 0 -0 0 0
0 0 0 0 0 0 0 0 0 0 0 0 0 0 0 0 0 0 0 0 0 0 0 0 0 0 0 0 0 0 0 0 0 0 0 0 0 0 0 0 -0 0 0 0 -0 -0 0 0 0 0 0 -0 0 0
0 0 0 0 0 0 0 0 0 0 0 0 0 0 0 0 0 0 0 0 0 0 0 0 0 0 0 0 0 0 0 0 0 0 0 0 0 0 0 0 0 0 0 0 0 0 0 0 0 0 0 0 0 0
0 0 0 0 0 0 0 0 0 0 0 0 0 0 0 0 0 0 0 0 0 0 0 0 0 0 0 0 0 0 0 0 0 0 0 0 0 0 0 0 0 0 0 0 0 0 0 0 0 0 0 0 0 0
0 0 0 0 0 0 0 0 0 0 0 0 0 0 0 0 0 0 0 0 0 0 0 0 0 0 0 0 0 0 0 0 0 0 0 0 0 0 0 0 0 0 0 0 0 0 0 0 0 0 0 0 0 0
0 0 0 0 0 0 0 0 0 -0 0 0 0 0 0 0 0 0 0 -0 -0 0 0 0 0 0 0 0 0 0 0 0 0 0 0 0 0 0 0 0 0 0 0 0 0 0 0 0 0 0 0 0 0 0
0 0 0 0 0 0 0 0 0 -0 0 0 0 0 0 0 0 0 -0 0 0 0 0 0 0 0 0 0 0 0 0 0 0 0 0 0 0 0 0 0 0 0 0 0 0 0 0 0 0 0 0 0 0 0
0 0 0 0 0 0 0 0 0 0 0 0 -0 -0 0 0 0 0 -0 -0 0 -0 0 0 0 0 0 0 0 0 0 0 0 0 0 0 0 0 0 0 0 0 0 0 0 0 0 0 0 0 0 0 0 0
0 0 0 0 0 0 0 0 0 0 0 0 0 0 0 -0 -0 -0 0 0 -0 -0 0 0 0 0 0 0 0 0 0 0 0 0 0 0 0 0 0 0 0 0 0 0 0 0 0 0 0 0 0 0 0 0
0 0 0 0 0 0 0 0 0 0 0 0 0 0 0 0 0 0 0 0 0 0 0 0 0 0 0 0 0 0 0 0 0 0 0 0 0 0 0 0 0 0 0 0 0 0 0 0 0 0 0 0 0 0
0 0 0 0 0 0 0 0 0 0 0 0 0 0 0 0 0 0 0 0 0 0 0 0 0 0 0 0 0 0 0 0 0 0 0 0 0 0 0 0 0 0 0 0 0 0 0 0 0 0 0 0 0 0
0 0 0 0 0 0 0 0 0 0 -0 0 0 0 0 0 0 0 0 0 0 0 0 0 0 0 0 0 0 0 0 0 0 0 0 0 0 0 0 0 0 0 0 0 0 0 0 0 0 0 0 0 0 0
0 0 0 0 0 0 0 0 0 0 0 0 -0 -0 0 0 0 0 0 0 0 0 0 0 0 0 0 0 0 0 0 0 0 0 0 0 0 0 0 0 0 0 0 0 0 0 0 0 0 0 0 0 0 0
Wind_Speed_500mb
61 57 57 56 55 62 65 63 61 64 63 59 51 41 38 38 36 35 45 8 16 22 63 68 49 46 37 37 6 16 17 12 10 11 7 6 5 7 7 8 11 4 5 2 6 2 8 35 33 13 13 21 34 46
55 56 57 61 60 64 66 66 67 63 62 58 52 42 37 37 35 33 50 38 30 38 52 71 76 57 59 38 39 8 4 3 7 5 5 5 5 5 8 8 8 5 8 4 4 2 8 32 30 22 35 28 39 48
59 58 62 70 69 68 68 68 67 59 58 54 43 37 40 35 34 33 50 49 33 25 49 23 17 3 11 19 14 13 7 5 8 8 6 4 8 3 3 4 6 6 8 8 10 10 2 29 50 49 37 42 59 38
63 67 68 66 64 63 64 63 63 55 53 50 43 41 37 36 36 39 50 49 29 16 11 18 17 54 26 33 28 20 33 10 14 12 7 5 6 10 3 7 4 5 12 11 8 10 18 37 47 49 59 54 64 54
65 67 68 66 60 58 60 63 61 53 50 46 46 39 38 37 39 47 49 41 32 26 9 31 64 3 32 22 29 32 23 9 7 7 7 6 8 7 2 4 2 11 3 1 5 17 10 20 37 30 42 53 72 67
64 63 60 58 58 59 60 61 58 52 49 47 40 38 33 34 35 41 12 3 2 43 11 7 24 21 17 22 32 35 27 16 11 8 11 11 20 3 4 4 3 23 32 13 6 26 25 28 29 46 44 40 51 42
58 57 56 56 54 55 57 58 56 53 49 46 42 38 35 32 27 22 10 8 16 22 11 11 12 11 11 28 33 36 33 21 16 9 9 9 7 7 1 4 16 25 20 21 31 23 10 22 26 33 35 31 41 48
53 51 50 50 51 54 54 54 54 53 47 41 35 35 32 29 29 24 12 17 23 19 9 5 8 14 12 11 11 21 21 24 17 10 9 6 3 5 2 15 18 16 10 15 34 20 17 18 22 27 19 30 37 45
51 48 48 48 50 51 51 51 50 50 43 32 28 26 14 4 5 7 8 24 30 22 7 8 4 7 4 7 12 9 16 5 11 6 5 5 4 1 10 10 8 18 4 15 25 22 21 22 26 27 26 30 34 37
45 43 43 44 46 48 46 47 47 43 33 27 11 6 3 3 7 8 6 7 7 9 11 8 13 7 10 3 7 6 3 4 1 7 5 5 5 9 12 17 20 12 11 13 13 23 27 24 22 25 27 26 25 26
42 41 41 42 43 41 40 39 38 41 28 22 16 8 7 6 8 6 8 10 10 7 14 16 29 10 13 6 7 3 4 4 2 4 3 1 4 7 9 12 9 1 8 7 13 15 17 20 20 27 25 22 27 26
41 40 41 40 39 35 36 31 33 37 35 36 27 30 15 4 8 6 6 7 9 9 13 12 22 30 9 10 3 5 1 6 5 3 4 3 7 21 17 12 8 9 9 9 14 25 24 29 33 36 32 30 29 20
36 36 35 34 28 27 26 33 32 37 35 10 6 6 5 4 4 9 9 7 6 9 15 16 6 17 10 8 5 5 4 7 11 5 5 7 19 30 31 17 16 11 3 9 17 24 25 26 32 33 32 38 32 33
33 32 31 24 20 30 36 43 44 36 13 6 7 8 8 8 10 10 8 6 15 26 31 18 10 9 9 5 5 5 7 2 7 4 7 4 25 29 24 16 8 18 12 11 12 18 27 26 28 29 31 43 52 44
31 29 25 15 35 45 50 44 33 18 7 8 8 9 11 25 23 31 39 36 43 45 48 10 6 12 1 5 2 2 2 5 9 8 6 11 18 2 15 18 15 31 29 19 11 14 20 23 29 34 34 35 47 56
35 23 14 27 42 48 41 36 16 6 8 10 14 9 21 19 22 22 30 34 35 36 36 6 6 6 6 8 5 9 8 10 8 6 19 28 32 39 23 21 18 18 20 24 16 14 14 15 21 28 26 27 37 47
37 17 31 36 42 45 35 21 8 12 12 11 16 26 41 42 40 48 43 43 52 32 5 8 9 13 5 6 5 8 9 8 14 13 15 27 28 43 36 25 26 23 21 19 17 16 11 7 12 11 17 26 28 34
37 38 36 28 34 44 23 8 10 12 17 27 16 36 40 50 52 48 55 53 45 21 12 8 10 5 8 11 6 8 24 23 20 13 18 34 19 35 38 38 29 27 18 23 24 21 15 10 8 6 9 16 12 17
40 40 34 17 22 27 12 7 13 11 18 29 36 45 47 52 55 55 58 60 55 48 16 8 8 6 8 11 11 12 16 3 29 40 24 24 20 28 26 30 27 31 29 31 30 25 17 11 9 7 11 12 21 15
40 38 20 13 18 8 9 12 11 16 12 14 31 51 45 40 51 53 55 55 46 23 10 5 7 20 23 26 27 30 23 14 11 15 18 29 36 29 29 34 38 36 30 34 31 35 26 21 21 15 12 16 16 18
43 14 23 30 26 17 13 12 14 21 23 19 32 33 30 33 41 45 39 49 27 8 5 18 36 43 49 44 38 21 21 29 15 27 49 36 32 44 40 30 39 42 36 29 33 39 29 22 30 26 15 14 13 14
43 41 35 21 12 12 17 24 18 15 21 27 44 35 16 11 22 22 31 30 10 25 32 37 43 46 44 43 42 37 34 18 12 7 43 35 41 37 47 50 54 45 36 35 39 44 32 32 31 27 16 15 11 10
21 20 13 14 13 10 15 21 14 11 7 9 23 12 10 14 19 40 11 19 41 42 51 51 50 47 57 57 51 41 33 24 28 29 34 45 52 37 32 41 40 41 39 47 41 48 43 34 35 31 24 15 10 10
26 10 9 8 16 10 12 10 14 10 9 7 6 10 10 12 25 11 6 11 35 45 46 40 32 33 19 26 38 41 31 30 25 32 40 52 49 42 35 30 32 37 43 41 46 51 44 41 39 31 26 20 15 11
8 10 6 10 13 12 8 6 6 2 8 16 16 10 8 8 1 2 3 18 37 42 49 52 43 28 22 17 12 16 17 34 39 30 32 50 53 45 36 33 34 28 35 49 53 50 50 46 40 34 27 25 19 14
7 12 14 10 8 4 5 11 12 12 10 8 7 13 11 4 4 5 6 34 33 47 50 44 39 35 15 25 30 14 4 3 14 15 32 48 46 43 47 48 42 46 48 54 56 55 52 51 48 38 30 30 24 19
9 12 18 23 24 24 10 16 33 13 8 7 6 10 9 10 7 6 11 32 37 58 57 36 29 29 17 11 15 26 29 24 14 12 17 28 24 32 32 42 50 57 50 53 54 53 56 57 52 40 31 33 29 22
16 11 10 28 29 36 12 4 4 5 9 9 1 2 5 3 3 11 18 34 35 34 50 51 41 37 36 35 24 19 26 32 25 19 22 25 32 31 28 23 32 38 47 55 64 62 56 55 50 43 33 31 29 23
13 21 27 23 19 13 10 9 11 17 27 22 3 5 5 13 21 18 23 22 25 21 33 45 47 37 42 47 46 42 38 34 26 23 17 18 12 10 8 26 30 46 58 56 54 61 60 57 47 41 32 30 27 21
18 24 13 9 6 8 16 20 24 34 36 36 25 30 15 8 29 25 24 26 33 33 33 35 33 37 39 41 50 50 49 41 33 26 23 14 15 6 10 18 24 50 52 58 64 60 51 52 49 43 37 35 28 21
21 12 11 13 10 26 36 34 37 37 36 32 27 34 6 20 13 42 52 38 27 24 25 32 35 38 42 44 40 30 39 38 31 26 19 11 3 7 5 10 21 22 42 52 55 60 63 57 51 44 42 37 28 19
12 13 9 6 8 31 29 15 11 10 10 13 10 16 25 12 12 31 54 45 40 35 28 24 26 30 29 29 32 33 29 23 21 23 23 26 13 3 10 18 22 30 35 38 41 44 45 51 53 50 42 33 24 16
28 31 16 10 8 9 8 5 4 4 4 15 22 28 25 13 11 30 41 39 33 34 31 26 22 19 21 25 31 31 32 31 26 26 24 24 20 22 25 16 13 17 15 28 32 32 36 38 37 33 27 15 7 5
Wind_Direction_500mb
316 317 319 318 317 318 317 317 318 319 317 318 317 310 314 318 319 311 312 327 265 256 280 279 276 271 276 286 268 325 335 7 324 357 6 327 306 329 304 314 337 345 273 236 230 259 278 351 349 25 318 305 314 326
317 321 323 319 319 319 317 315 316 318 317 316 312 303 305 311 312 307 303 316 298 270 262 281 290 281 272 278 256 264 240 258 297 325 337 303 308 295 309 323 351 3 328 285 29 226 348 305 282 345 354 332 321 339
315 312 314 313 314 313 312 313 315 320 318 318 316 308 309 303 307 300 299 307 300 280 302 285 287 142 315 301 270 204 214 193 247 310 284 280 281 261 316 302 294 297 349 4 339 7 237 346 0 359 357 343 358 338
309 312 315 315 314 311 312 314 316 323 317 315 315 309 308 302 302 299 295 299 271 262 274 281 294 298 290 259 228 250 254 230 247 276 260 267 261 218 262 275 334 313 348 331 293 315 334 352 0 350 342 355 342 352
308 310 312 312 312 313 314 313 318 322 314 311 315 315 307 297 302 301 303 292 264 207 292 296 310 341 298 243 205 214 236 227 202 244 232 244 250 253 80 310 314 335 291 21 299 320 306 318 357 331 341 349 349 344
307 309 312 316 316 315 312 312 319 322 313 312 317 316 309 303 307 317 325 328 260 198 284 300 307 307 318 218 215 221 229 221 203 220 247 252 246 212 19 312 247 351 342 339 280 316 317 302 341 9 24 337 344 19
310 312 315 315 316 313 314 319 321 322 316 309 311 308 302 300 288 269 241 168 160 207 271 296 292 285 298 209 224 234 227 225 220 242 238 246 278 94 30 310 305 329 337 345 352 340 2 346 338 16 26 354 13 48
312 316 318 318 318 319 323 322 322 323 322 315 310 301 296 287 277 282 241 185 181 211 257 269 271 305 215 213 240 222 194 199 219 235 257 246 349 99 222 248 301 313 316 4 8 21 346 23 23 30 11 20 20 31
316 320 318 319 321 322 324 324 322 326 328 321 313 309 307 168 200 282 240 213 222 203 250 242 228 269 343 323 270 237 210 178 190 205 257 125 328 198 235 258 281 3 1 1 18 31 26 26 35 26 11 13 19 19
321 322 322 323 322 325 327 327 327 333 337 335 332 332 157 137 334 318 239 225 203 230 243 252 218 257 314 24 271 311 311 236 192 241 139 83 254 257 242 266 278 282 11 32 44 53 45 40 39 35 22 12 17 21
321 323 325 323 326 329 331 330 336 345 354 3 341 293 290 287 307 246 215 186 184 241 227 239 216 221 227 165 227 297 252 307 332 317 6 205 290 241 179 234 255 275 178 49 80 70 57 51 56 42 39 40 34 25
322 325 324 325 329 335 349 353 348 343 340 318 302 293 307 263 234 248 223 199 195 233 212 204 210 201 225 197 117 333 179 25 250 337 187 216 232 187 175 192 175 142 111 77 100 78 76 70 70 61 54 53 40 34
323 326 324 326 328 341 336 332 338 334 331 332 257 249 218 246 235 216 219 238 228 223 210 195 164 165 159 175 90 76 58 242 319 31 244 216 169 147 165 155 151 152 144 101 105 83 75 75 71 62 59 46 36 39
323 323 321 320 329 330 327 328 326 326 339 288 242 256 200 208 237 205 225 234 284 293 263 187 161 152 155 108 135 111 235 121 349 329 249 253 168 150 155 158 167 164 153 98 91 77 57 54 48 49 42 38 41 43
323 322 316 330 321 318 327 327 327 310 262 262 255 245 226 230 258 277 280 274 285 298 268 168 130 149 89 124 170 100 5 272 196 233 237 153 129 124 168 172 142 141 150 139 131 80 58 53 65 57 39 38 36 36
322 326 283 288 309 313 323 317 313 242 233 236 239 271 278 293 287 305 312 314 328 323 340 299 136 133 191 151 127 209 151 225 248 218 186 176 211 223 232 206 187 164 141 137 124 95 78 75 80 83 72 56 40 37
322 323 307 319 318 320 322 302 210 228 234 231 241 246 264 279 275 282 291 296 299 290 179 76 275 202 136 132 181 180 205 214 225 230 228 197 187 188 206 222 187 171 153 146 142 123 101 104 77 98 59 57 40 37
310 320 329 332 333 334 332 233 239 250 237 242 247 257 266 273 278 285 290 297 294 275 162 219 246 160 202 174 236 230 228 244 248 260 188 170 224 219 223 220 194 173 177 167 160 153 136 160 195 84 58 39 51 48
312 318 327 329 338 327 301 261 236 261 257 270 268 274 277 279 283 287 289 295 299 294 235 178 253 199 223 218 190 140 154 10 283 285 268 237 221 215 210 191 202 194 190 180 171 173 158 129 155 159 88 56 81 77
308 313 293 319 309 283 267 261 248 267 258 254 274 282 283 283 294 292 296 299 303 288 161 174 227 224 225 235 235 221 250 232 247 209 190 180 185 210 224 197 195 192 194 180 175 182 169 149 157 147 97 79 78 70
311 338 300 286 278 252 258 267 248 257 275 264 272 308 306 297 306 300 298 303 304 232 240 240 249 267 270 261 267 275 267 231 243 239 219 221 201 213 222 207 215 198 193 184 184 184 178 168 161 163 134 93 77 78
309 310 305 306 238 239 246 239 243 269 308 285 290 291 269 269 291 297 315 286 245 281 283 280 282 276 270 273 266 266 257 216 188 281 232 226 195 197 202 196 211 202 201 199 194 188 178 175 173 170 152 121 110 114
311 305 268 230 233 241 254 243 241 232 243 273 327 346 307 307 292 302 277 300 299 317 319 311 304 293 272 271 256 271 233 242 255 249 232 231 219 229 213 203 207 204 195 185 185 176 176 175 182 177 162 148 145 135
308 272 257 246 216 260 259 242 229 256 273 298 313 292 281 261 287 272 272 351 355 345 349 348 351 341 266 221 227 237 252 233 233 225 237 234 209 201 195 202 205 205 190 185 183 177 177 173 171 171 166 171 165 162
271 250 223 266 250 219 254 254 238 269 320 314 278 259 260 275 293 243 233 9 343 348 352 360 358 354 348 336 299 287 280 240 239 239 221 209 191 185 183 193 181 199 201 192 180 179 178 174 178 185 188 194 192 179
253 223 193 230 258 241 10 357 11 326 307 284 274 282 299 275 255 35 58 354 1 0 355 1 356 9 29 75 48 28 355 227 156 160 181 187 200 208 201 184 195 191 193 199 186 179 184 186 185 186 189 194 196 192
238 266 232 235 262 282 279 289 306 299 272 273 284 337 8 350 356 33 4 4 352 360 5 24 25 0 29 70 86 62 70 82 115 165 173 184 196 197 206 219 217 207 201 194 196 203 196 192 188 188 186 185 194 202
247 274 258 271 264 272 278 240 227 238 242 212 285 165 264 253 319 330 352 359 5 1 12 30 28 50 73 83 78 69 64 68 68 98 138 187 212 216 219 222 217 202 200 189 193 203 204 198 193 192 185 183 185 199
244 253 288 279 282 251 241 224 223 220 245 272 56 307 313 33 16 15 360 1 8 19 26 18 21 46 47 50 48 47 56 57 52 54 72 90 107 126 188 205 200 196 191 195 196 210 206 196 197 195 198 202 187 183
264 263 252 257 236 236 229 221 255 274 284 286 272 270 270 98 47 34 20 14 30 37 43 47 35 33 40 48 52 53 48 53 58 56 62 76 70 219 184 206 205 204 198 193 181 174 182 190 190 191 198 196 192 196
272 268 244 229 249 262 280 283 277 278 280 283 278 257 206 153 68 28 25 23 26 33 34 37 38 36 33 37 42 50 55 54 54 52 47 39 247 249 132 169 184 178 186 184 183 188 187 190 191 196 197 195 194 200
260 246 256 258 278 302 309 278 272 232 256 257 307 59 109 87 59 17 12 15 26 34 34 36 44 48 48 54 56 58 59 58 57 52 61 65 56 352 219 175 155 175 177 175 178 183 191 189 185 186 184 183 184 186
280 287 336 320 308 291 322 253 294 274 112 67 41 45 58 73 74 16 13 27 42 51 51 54 56 60 73 73 65 63 58 53 53 57 53 57 84 67 69 94 126 128 163 192 196 192 180 172 162 158 155 162 184 205
Wind_Speed_850mb
61 57 57 56 55 62 65 63 61 64 63 59 51 41 38 38 36 35 45 8 16 22 63 68 49 46 37 37 6 16 17 12 10 11 7 6 5 7 7 8 11 4 5 2 6 2 8 35 33 13 13 21 34 46
55 56 57 61 60 64 66 66 67 63 62 58 52 42 37 37 35 33 50 38 30 38 52 71 76 57 59 38 39 8 4 3 7 5 5 5 5 5 8 8 8 5 8 4 4 2 8 32 30 22 35 28 39 48
59 58 62 70 69 68 68 68 67 59 58 54 43 37 40 35 34 33 50 49 33 25 49 23 17 3 11 19 14 13 7 5 8 8 6 4 8 3 3 4 6 6 8 8 10 10 2 29 50 49 37 42 59 38
63 67 68 66 64 63 64 63 63 55 53 50 43 41 37 36 36 39 50 49 29 16 11 18 17 54 26 33 28 20 33 10 14 12 7 5 6 10 3 7 4 5 12 11 8 10 18 37 47 49 59 54 64 54
65 67 68 66 60 58 60 63 61 53 50 46 46 39 38 37 39 47 49 41 32 26 9 31 64 3 32 22 29 32 23 9 7 7 7 6 8 7 2 4 2 11 3 1 5 17 10 20 37 30 42 53 72 67
64 63 60 58 58 59 60 61 58 52 49 47 40 38 33 34 35 41 12 3 2 43 11 7 24 21 17 22 32 35 27 16 11 8 11 11 20 3 4 4 3 23 32 13 6 26 25 28 29 46 44 40 51 42
58 57 56 56 54 55 57 58 56 53 49 46 42 38 35 32 27 22 10 8 16 22 11 11 12 11 11 28 33 36 33 21 16 9 9 9 7 7 1 4 16 25 20 21 31 23 10 22 26 33 35 31 41 48
53 51 50 50 51 54 54 54 54 53 47 41 35 35 32 29 29 24 12 17 23 19 9 5 8 14 12 11 11 21 21 24 17 10 9 6 3 5 2 15 18 16 10 15 34 20 17 18 22 27 19 30 37 45
51 48 48 48 50 51 51 51 50 50 43 32 28 26 14 4 5 7 8 24 30 22 7 8 4 7 4 7 12 9 16 5 11 6 5 5 4 1 10 10 8 18 4 15 25 22 21 22 26 27 26 30 34 37
45 43 43 44 46 48 46 47 47 43 33 27 11 6 3 3 7 8 6 7 7 9 11 8 13 7 10 3 7 6 3 4 1 7 5 5 5 9 12 17 20 12 11 13 13 23 27 24 22 25 27 26 25 26
42 41 41 42 43 41 40 39 38 41 28 22 16 8 7 6 8 6 8 10 10 7 14 16 29 10 13 6 7 3 4 4 2 4 3 1 4 7 9 12 9 1 8 7 13 15 17 20 20 27 25 22 27 26
41 40 41 40 39 35 36 31 33 37 35 36 27 30 15 4 8 6 6 7 9 9 13 12 22 30 9 10 3 5 1 6 5 3 4 3 7 21 17 12 8 9 9 9 14 25 24 29 33 36 32 30 29 20
36 36 35 34 28 27 26 33 32 37 35 10 6 6 5 4 4 9 9 7 6 9 15 16 6 17 10 8 5 5 4 7 11 5 5 7 19 30 31 17 16 11 3 9 17 24 25 26 32 33 32 38 32 33
33 32 31 24 20 30 36 43 44 36 13 6 7 8 8 8 10 10 8 6 15 26 31 18 10 9 9 5 5 5 7 2 7 4 7 4 25 29 24 16 8 18 12 11 12 18 27 26 28 29 31 43 52 44
31 29 25 15 35 45 50 44 33 18 7 8 8 9 11 25 23 31 39 36 43 45 48 10 6 12 1 5 2 2 2 5 9 8 6 11 18 2 15 18 15 31 29 19 11 14 20 23 29 34 34 35 47 56
35 23 14 27 42 48 41 36 16 6 8 10 14 9 21 19 22 22 30 34 35 36 36 6 6 6 6 8 5 9 8 10 8 6 19 28 32 39 23 21 18 18 20 24 16 14 14 15 21 28 26 27 37 47
37 17 31 36 42 45 35 21 8 12 12 11 16 26 41 42 40 48 43 43 52 32 5 8 9 13 5 6 5 8 9 8 14 13 15 27 28 43 36 25 26 23 21 19 17 16 11 7 12 11 17 26 28 34
37 38 36 28 34 44 23 8 10 12 17 27 16 36 40 50 52 48 55 53 45 21 12 8 10 5 8 11 6 8 24 23 20 13 18 34 19 35 38 38 29 27 18 23 24 21 15 10 8 6 9 16 12 17
40 40 34 17 22 27 12 7 13 11 18 29 36 45 47 52 55 55 58 60 55 48 16 8 8 6 8 11 11 12 16 3 29 40 24 24 20 28 26 30 27 31 29 31 30 25 17 11 9 7 11 12 21 15
40 38 20 13 18 8 9 12 11 16 12 14 31 51 45 40 51 53 55 55 46 23 10 5 7 20 23 26 27 30 23 14 11 15 18 29 36 29 29 34 38 36 30 34 31 35 26 21 21 15 12 16 16 18
43 14 23 30 26 17 13 12 14 21 23 19 32 33 30 33 41 45 39 49 27 8 5 18 36 43 49 44 38 21 21 29 15 27 49 36 32 44 40 30 39 42 36 29 33 39 29 22 30 26 15 14 13 14
43 41 35 21 12 12 17 24 18 15 21 27 44 35 16 11 22 22 31 30 10 25 32 37 43 46 44 43 42 37 34 18 12 7 43 35 41 37 47 50 54 45 36 35 39 44 32 32 31 27 16 15 11 10
21 20 13 14 13 10 15 21 14 11 7 9 23 12 10 14 19 40 11 19 41 42 51 51 50 47 57 57 51 41 33 24 28 29 34 45 52 37 32 41 40 41 39 47 41 48 43 34 35 31 24 15 10 10
26 10 9 8 16 10 12 10 14 10 9 7 6 10 10 12 25 11 6 11 35 45 46 40 32 33 19 26 38 41 31 30 25 32 40 52 49 42 35 30 32 37 43 41 46 51 44 41 39 31 26 20 15 11
8 10 6 10 13 12 8 6 6 2 8 16 16 10 8 8 1 2 3 18 37 42 49 52 43 28 22 17 12 16 17 34 39 30 32 50 53 45 36 33 34 28 35 49 53 50 50 46 40 34 27 25 19 14
7 12 14 10 8 4 5 11 12 12 10 8 7 13 11 4 4 5 6 34 33 47 50 44 39 35 15 25 30 14 4 3 14 15 32 48 46 43 47 48 42 46 48 54 56 55 52 51 48 38 30 30 24 19
9 12 18 23 24 24 10 16 33 13 8 7 6 10 9 10 7 6 11 32 37 58 57 36 29 29 17 11 15 26 29 24 14 12 17 28 24 32 32 42 50 57 50 53 54 53 56 57 52 40 31 33 29 22
16 11 10 28 29 36 12 4 4 5 9 9 1 2 5 3 3 11 18 34 35 34 50 51 41 37 36 35 24 19 26 32 25 19 22 25 32 31 28 23 32 38 47 55 64 62 56 55 50 43 33 31 29 23
13 21 27 23 19 13 10 9 11 17 27 22 3 5 5 13 21 18 23 22 25 21 33 45 47 37 42 47 46 42 38 34 26 23 17 18 12 10 8 26 30 46 58 56 54 61 60 57 47 41 32 30 27 21
18 24 13 9 6 8 16 20 24 34 36 36 25 30 15 8 29 25 24 26 33 33 33 35 33 37 39 41 50 50 49 41 33 26 23 14 15 6 10 18 24 50 52 58 64 60 51 52 49 43 37 35 28 21
21 12 11 13 10 26 36 34 37 37 36 32 27 34 6 20 13 42 52 38 27 24 25 32 35 38 42 44 40 30 39 38 31 26 19 11 3 7 5 10 21 22 42 52 55 60 63 57 51 44 42 37 28 19
12 13 9 6 8 31 29 15 11 10 10 13 10 16 25 12 12 31 54 45 40 35 28 24 26 30 29 29 32 33 29 23 21 23 23 26 13 3 10 18 22 30 35 38 41 44 45 51 53 50 42 33 24 16
28 31 16 10 8 9 8 5 4 4 4 15 22 28 25 13 11 30 41 39 33 34 31 26 22 19 21 25 31 31 32 31 26 26 24 24 20 22 25 16 13 17 15 28 32 32 36 38 37 33 27 15 7 5
Wind_Direction_850mb
316 317 319 318 317 318 317 317 318 319 317 318 317 310 314 318 319 311 312 327 265 256 280 279 276 271 276 286 268 325 335 7 324 357 6 327 306 329 304 314 337 345 273 236 230 259 278 351 349 25 318 305 314 326
317 321 323 319 319 319 317 315 316 318 317 316 312 303 305 311 312 307 303 316 298 270 262 281 290 281 272 278 256 264 240 258 297 325 337 303 308 295 309 323 351 3 328 285 29 226 348 305 282 345 354 332 321 339
315 312 314 313 314 313 312 313 315 320 318 318 316 308 309 303 307 300 299 307 300 280 302 285 287 142 315 301 270 204 214 193 247 310 284 280 281 261 316 302 294 297 349 4 339 7 237 346 0 359 357 343 358 338
309 312 315 315 314 311 312 314 316 323 317 315 315 309 308 302 302 299 295 299 271 262 274 281 294 298 290 259 228 250 254 230 247 276 260 267 261 218 262 275 334 313 348 331 293 315 334 352 0 350 342 355 342 352
308 310 312 312 312 313 314 313 318 322 314 311 315 315 307 297 302 301 303 292 264 207 292 296 310 341 298 243 205 214 236 227 202 244 232 244 250 253 80 310 314 335 291 21 299 320 306 318 357 331 341 349 349 344
307 309 312 316 316 315 312 312 319 322 313 312 317 316 309 303 307 317 325 328 260 198 284 300 307 307 318 218 215 221 229 221 203 220 247 252 246 212 19 312 247 351 342 339 280 316 317 302 341 9 24 337 344 19
310 312 315 315 316 313 314 319 321 322 316 309 311 308 302 300 288 269 241 168 160 207 271 296 292 285 298 209 224 234 227 225 220 242 238 246 278 94 30 310 305 329 337 345 352 340 2 346 338 16 26 354 13 48
312 316 318 318 318 319 323 322 322 323 322 315 310 301 296 287 277 282 241 185 181 211 257 269 271 305 215 213 240 222 194 199 219 235 257 246 349 99 222 248 301 313 316 4 8 21 346 23 23 30 11 20 20 31
316 320 318 319 321 322 324 324 322 326 328 321 313 309 307 168 200 282 240 213 222 203 250 242 228 269 343 323 270 237 210 178 190 205 257 125 328 198 235 258 281 3 1 1 18 31 26 26 35 26 11 13 19 19
321 322 322 323 322 325 327 327 327 333 337 335 332 332 157 137 334 318 239 225 203 230 243 252 218 257 314 24 271 311 311 236 192 241 139 83 254 257 242 266 278 282 11 32 44 53 45 40 39 35 22 12 17 21
321 323 325 323 326 329 331 330 336 345 354 3 341 293 290 287 307 246 215 186 184 241 227 239 216 221 227 165 227 297 252 307 332 317 6 205 290 241 179 234 255 275 178 49 80 70 57 51 56 42 39 40 34 25
322 325 324 325 329 335 349 353 348 343 340 318 302 293 307 263 234 248 223 199 195 233 212 204 210 201 225 197 117 333 179 25 250 337 187 216 232 187 175 192 175 142 111 77 100 78 76 70 70 61 54 53 40 34
323 326 324 326 328 341 336 332 338 334 331 332 257 249 218 246 235 216 219 238 228 223 210 195 164 165 159 175 90 76 58 242 319 31 244 216 169 147 165 155 151 152 144 101 105 83 75 75 71 62 59 46 36 39
323 323 321 320 329 330 327 328 326 326 339 288 242 256 200 208 237 205 225 234 284 293 263 187 161 152 155 108 135 111 235 121 349 329 249 253 168 150 155 158 167 164 153 98 91 77 57 54 48 49 42 38 41 43
323 322 316 330 321 318 327 327 327 310 262 262 255 245 226 230 258 277 280 274 285 298 268 168 130 149 89 124 170 100 5 272 196 233 237 153 129 124 168 172 142 141 150 139 131 80 58 53 65 57 39 38 36 36
322 326 283 288 309 313 323 317 313 242 233 236 239 271 278 293 287 305 312 314 328 323 340 299 136 133 191 151 127 209 151 225 248 218 186 176 211 223 232 206 187 164 141 137 124 95 78 75 80 83 72 56 40 37
322 323 307 319 318 320 322 302 210 228 234 231 241 246 264 279 275 282 291 296 299 290 179 76 275 202 136 132 181 180 205 214 225 230 228 197 187 188 206 222 187 171 153 146 142 123 101 104 77 98 59 57 40 37
310 320 329 332 333 334 332 233 239 250 237 242 247 257 266 273 278 285 290 297 294 275 162 219 246 160 202 174 236 230 228 244 248 260 188 170 224 219 223 220 194 173 177 167 160 153 136 160 195 84 58 39 51 48
312 318 327 329 338 327 301 261 236 261 257 270 268 274 277 279 283 287 289 295 299 294 235 178 253 199 223 218 190 140 154 10 283 285 268 237 221 215 210 191 202 194 190 180 171 173 158 129 155 159 88 56 81 77
308 313 293 319 309 283 267 261 248 267 258 254 274 282 283 283 294 292 296 299 303 288 161 174 227 224 225 235 235 221 250 232 247 209 190 180 185 210 224 197 195 192 194 180 175 182 169 149 157 147 97 79 78 70
311 338 300 286 278 252 258 267 248 257 275 264 272 308 306 297 306 300 298 303 304 232 240 240 249 267 270 261 267 275 267 231 243 239 219 221 201 213 222 207 215 198 193 184 184 184 178 168 161 163 134 93 77 78
309 310 305 306 238 239 246 239 243 269 308 285 290 291 269 269 291 297 315 286 245 281 283 280 282 276 270 273 266 266 257 216 188 281 232 226 195 197 202 196 211 202 201 199 194 188 178 175 173 170 152 121 110 114
311 305 268 230 233 241 254 243 241 232 243 273 327 346 307 307 292 302 277 300 299 317 319 311 304 293 272 271 256 271 233 242 255 249 232 231 219 229 213 203 207 204 195 185 185 176 176 175 182 177 162 148 145 135
308 272 257 246 216 260 259 242 229 256 273 298 313 292 281 261 287 272 272 351 355 345 349 348 351 341 266 221 227 237 252 233 233 225 237 234 209 201 195 202 205 205 190 185 183 177 177 173 171 171 166 171 165 162
271 250 223 266 250 219 254 254 238 269 320 314 278 259 260 275 293 243 233 9 343 348 352 360 358 354 348 336 299 287 280 240 239 239 221 209 191 185 183 193 181 199 201 192 180 179 178 174 178 185 188 194 192 179
253 223 193 230 258 241 10 357 11 326 307 284 274 282 299 275 255 35 58 354 1 0 355 1 356 9 29 75 48 28 355 227 156 160 181 187 200 208 201 184 195 191 193 199 186 179 184 186 185 186 189 194 196 192
238 266 232 235 262 282 279 289 306 299 272 273 284 337 8 350 356 33 4 4 352 360 5 24 25 0 29 70 86 62 70 82 115 165 173 184 196 197 206 219 217 207 201 194 196 203 196 192 188 188 186 185 194 202
247 274 258 271 264 272 278 240 227 238 242 212 285 165 264 253 319 330 352 359 5 1 12 30 28 50 73 83 78 69 64 68 68 98 138 187 212 216 219 222 217 202 200 189 193 203 204 198 193 192 185 183 185 199
244 253 288 279 282 251 241 224 223 220 245 272 56 307 313 33 16 15 360 1 8 19 26 18 21 46 47 50 48 47 56 57 52 54 72 90 107 126 188 205 200 196 191 195 196 210 206 196 197 195 198 202 187 183
264 263 252 257 236 236 229 221 255 274 284 286 272 270 270 98 47 34 20 14 30 37 43 47 35 33 40 48 52 53 48 53 58 56 62 76 70 219 184 206 205 204 198 193 181 174 182 190 190 191 198 196 192 196
272 268 244 229 249 262 280 283 277 278 280 283 278 257 206 153 68 28 25 23 26 33 34 37 38 36 33 37 42 50 55 54 54 52 47 39 247 249 132 169 184 178 186 184 183 188 187 190 191 196 197 195 194 200
260 246 256 258 278 302 309 278 272 232 256 257 307 59 109 87 59 17 12 15 26 34 34 36 44 48 48 54 56 58 59 58 57 52 61 65 56 352 219 175 155 175 177 175 178 183 191 189 185 186 184 183 184 186
280 287 336 320 308 291 322 253 294 274 112 67 41 45 58 73 74 16 13 27 42 51 51 54 56 60 73 73 65 63 58 53 53 57 53 57 84 67 69 94 126 128 163 192 196 192 180 172 162 158 155 162 184 205